Regional Weather Roundup
Issued by NWS State College, PA

Home | Current Version | Previous Version | Text Only | Print | Product List | Glossary On
Versions: 1 2 3 4 5 6 7 8 9 10 11 12 13 14 15 16 17 18 19 20 21 22 23 24 25 26 27 28 29 30 31 32 33 34 35 36 37 38 39 40 41 42 43 44 45 46 47 48 49 50
000
ASUS41 KCTP 260703
RWRCTP

REGIONAL WEATHER ROUNDUP
NATIONAL WEATHER SERVICE STATE COLLEGE PA
300 AM EDT SUN MAR 26 2017

Note: "fair" indicates few or no clouds below 12,000 feet with no
significant weather and/or obstructions to visibility.

* = STATION THAT DOES NOT REPORT PRECIPITATION /E.G. RAIN...SNOW...ETC/
    THUNDER OR FOG.

PAZ002>004-007>009-013>016-020>023-029>032-260800-
WESTERN PENNSYLVANIA

CITY           SKY/WX    TMP DP  RH WIND       PRES   REMARKS
ERIE           MOCLDY    37  34  89 NE12      30.16S
MEADVILLE      MOCLDY    52  46  80 E7        30.12F
FRANKLIN*      MOCLDY    52  45  76 E10       30.15F
NEW CASTLE     PTSUNNY   58  50  75 SE6       30.11F
BEAVER COUNTY  NOT AVBL
BUTLER*        CLOUDY    57  48  72 E9        30.13S
PITTSBURGH INT CLOUDY    60  52  74 E6        30.09F
PITTSBURGH     MOCLDY    59  48  67 E9        30.10F
INDIANA*       CLEAR     54  46  76 E9G16     30.19S
LATROBE        PTCLDY    59  50  72 NE6       30.14S
WASHINGTON CO* MOCLDY    52  48  87 CALM      30.12S
$$

PAZ004>006-010>012-017>019-024>028-033>037-041-042-045-046-049>053-260800-
CENTRAL PENNSYLVANIA

CITY           SKY/WX    TMP DP  RH WIND       PRES   REMARKS
BRADFORD       CLOUDY    40  38  93 E8        30.21F
DUBOIS         MOCLDY    46  40  79 E10       30.18F
CLEARFIELD       N/A    N/A N/A N/A MISG      30.24S
JOHNSTOWN      PTCLDY    49  45  86 E8        30.17F
ALTOONA        CLOUDY    50  44  80 NE8       30.23R
STATE COLLEGE  CLOUDY    41  38  91 NE5       30.27S
WILLIAMSPORT   CLOUDY    44  38  79 E7        30.32R
SELINSGROVE    CLOUDY    45  40  82 CALM      30.32R
FT INDIANTOWN  CLOUDY    44  43  95 E10       30.32S
CAPITAL CITY   CLOUDY    48  39  71 E8        30.31R
HARRISBURG     CLOUDY    47  40  76 E8        30.31R
YORK           CLOUDY    47  41  80 E12       30.29R
$$

PAZ038>040-043-044-047-048-054-055-060>062-067>071-260800-
EASTERN PENNSYLVANIA

CITY           SKY/WX    TMP DP  RH WIND       PRES   REMARKS
SCRANTON       CLOUDY    40  34  79 E8        30.33S
MOUNT POCONO   CLOUDY    31  31 100 E16G22    30.31S
ALLENTOWN      CLOUDY    41  34  76 NE9       30.37R
QUAKERTOWN*    CLOUDY    41  39  93 E6        30.36S
READING        CLOUDY    45  41  86 SE10      30.34R
LANCASTER      CLOUDY    45  41  86 E15       30.32R
COATESVILLE    CLOUDY    43  39  87 E20G26    30.33R
POTTSTOWN      CLOUDY    42  38  85 E8        30.36R
BLUE BELL      CLOUDY    41  37  87 E9        30.35S
DOYLESTOWN     CLOUDY    42  39  89 MISG      30.35S
WILLOW GROVE   NOT AVBL
NORTH PHILA    MOCLDY    44  39  82 E15       30.37S
PHILADELPHIA   CLOUDY    44  38  79 E10       30.35S
$$



USA.gov is the U.S. government's official web portal to all federal, state and local government web resources and services.